Notices

What's New in latest Release from April 7th, 2021:

- Updated Glossary, including Speed of Maximum Gust, and Total Hourly Precipitation

- Updated national and regional climate services offices contacts and prices information

- Addition of station inventory lists for 1981-2010, 1971-2000, and 1961-1990 Normals.

If you haven't already, please take our survey and provide feedback about our website: https://eccc.sondage-survey.ca/f/LanguageSelection.aspx?s=442ca660-fcf1-47c0-95a9-59707d6fd709

Hourly Data Report for May 23, 2020

MIRAMICHI RCS
NEW BRUNSWICK
Current Station Operator: ECCC - MSC

47°00'34.000" N
65°27'54.000" W
33.00 m
8100989
71744
ACQ

Download Data

Hourly Data (May 2020)
Hourly Data Report for May 23, 2020
TIME
LST
Temp Definition
°C
Dew Point Definition
°C
Rel Hum Definition
%
Precip. Amount Definition
mm

Wind Dir Definition
10's deg

Wind Spd Definition
km/h
Visibility Definition
km
Stn Press Definition
kPa
Hmdx Definition


Wind Chill Definition


Weather Definition


00:00 5.1 -0.9 65 LegendMM 2 7   101.22     LegendNANA
01:00 3.7 -1.5 68 LegendMM 35 3   101.31     LegendNANA
02:00 4.4 -0.6 70 LegendMM 36 5   101.38     LegendNANA
03:00 2.3 -0.4 82 LegendMM 34 3   101.49     LegendNANA
04:00 4.6 -2.4 60 LegendMM 4 13   101.63     LegendNANA
05:00 4.1 -5.7 49 LegendMM 3 12   101.73     LegendNANA
06:00 4.2 -6.5 46 LegendMM 3 13   101.84     LegendNANA
07:00 5.2 -7.3 40 LegendMM 3 19   101.94     LegendNANA
08:00 6.4 -7.4 36 LegendMM 3 14   102.02     LegendNANA
09:00 7.1 -6.1 38 LegendMM 35 11   102.08     LegendNANA
10:00 8.0 -7.9 32 LegendMM 2 12   102.09     LegendNANA
11:00 9.1 -7.7 30 LegendMM 4 11   102.06     LegendNANA
12:00 10.1 -9.6 24 LegendMM 2 13   102.07     LegendNANA
13:00 11.4 -7.9 25 LegendMM 4 9   102.03     LegendNANA
14:00 12.5 -6.8 25 LegendMM 11 6   101.99     LegendNANA
15:00 13.3 -6.3 25 LegendMM 2 8   101.95     LegendNANA
16:00 14.0 -5.8 25 LegendMM 3 12   101.97     LegendNANA
17:00 14.5 -4.7 26 LegendMM 15 4   101.97     LegendNANA
18:00 14.5 -0.3 36 LegendMM 9 9   101.97     LegendNANA
19:00 13.0 -1.6 36 LegendMM 14 17   102.02     LegendNANA
20:00 10.7 -3.5 37 LegendMM 15 10   102.07     LegendNANA
21:00 8.6 -3.8 41 LegendMM 17 12   102.13     LegendNANA
22:00 6.4 -3.2 50 LegendMM 29 2   102.19     LegendNANA
23:00 5.7 -3.8 50 LegendMM 23 8   102.21     LegendNANA

Notes on Data Quality.

Legend

  • E = Estimated
  • M = Missing
  • NA = Not Available*
  • [empty] = Indicates an unobserved value
Date modified: